Main page
Satellite images Climate Cyclones Lightning AirportsFAQ Languages Contact Newsletter About
Weather : Europe Africa North America South America Asia Australia-Oceania Others

5365, Udon Thani, Udon Thani International Airport

48354

latitude: , longitude: Thailand, elevation: 17-23N m


METAR: VTUD 241300Z 18003KT 160V220 8000 FEW040 SCT100 27/21 Q1013 NOSIG